TimeSAST,TemperatureF,Dew PointF,Humidity,Sea Level PressureIn,VisibilityMPH,Wind Direction,Wind SpeedMPH,Gust SpeedMPH,PrecipitationIn,Events,Conditions,WindDirDegrees,DateUTC
12:00 AM,62.6,60.8,94,29.83,-9999.0,NW,5.8,-,N/A,,Clear,310,2012-12-18 22:00:00
1:00 AM,62.6,60.8,94,29.83,4.3,West,5.8,-,N/A,,Unknown,270,2012-12-18 23:00:00
2:00 AM,63,61,92,29.80,2,WNW,5.8,,,,,300,2012-12-19 00:00:00
2:00 AM,62.6,60.8,94,29.80,-9999.0,WNW,5.8,-,N/A,,Mostly Cloudy,290,2012-12-19 00:00:00
3:00 AM,62.6,60.8,94,29.77,0.6,WNW,6.9,-,N/A,Fog,Fog,300,2012-12-19 01:00:00
4:00 AM,62.6,60.8,94,29.74,-9999.0,West,8.1,-,N/A,Fog,Fog,270,2012-12-19 02:00:00
5:00 AM,63,62,93,29.78,0,West,12.7,,,Fog,Heavy Fog,270,2012-12-19 03:00:00
5:00 AM,62.6,60.8,94,29.77,0.5,West,11.5,-,N/A,Fog,Fog,280,2012-12-19 03:00:00
6:00 AM,62.6,60.8,94,29.80,1.9,West,11.5,-,N/A,,Overcast,270,2012-12-19 04:00:00
7:00 AM,64.4,62.6,94,29.80,5.0,West,13.8,-,N/A,,Overcast,270,2012-12-19 05:00:00
8:00 AM,65,62,88,29.82,6,West,13.8,,,,Haze,270,2012-12-19 06:00:00
8:00 AM,64.4,62.6,94,29.83,6.2,West,13.8,-,N/A,,Overcast,270,2012-12-19 06:00:00
9:00 AM,68.0,62.6,83,29.83,6.2,West,11.5,-,N/A,,Mostly Cloudy,260,2012-12-19 07:00:00
10:00 AM,73.4,64.4,73,29.80,-9999.0,West,9.2,-,N/A,,Clear,270,2012-12-19 08:00:00
11:00 AM,75,65,63,29.78,12,SSW,15.0,,,,Scattered Clouds,200,2012-12-19 09:00:00
11:00 AM,75.2,64.4,69,29.80,6.2,SSW,15.0,-,N/A,,Partly Cloudy,200,2012-12-19 09:00:00
12:00 PM,71.6,62.6,73,29.83,6.2,SSW,17.3,-,N/A,,Mostly Cloudy,200,2012-12-19 10:00:00
1:00 PM,73.4,64.4,73,29.86,6.2,WSW,16.1,-,N/A,,Mostly Cloudy,240,2012-12-19 11:00:00
2:00 PM,73,65,70,29.87,12,SW,12.7,,,,Mostly Cloudy,230,2012-12-19 12:00:00
2:00 PM,73.4,64.4,73,29.86,6.2,SW,13.8,-,N/A,,Mostly Cloudy,230,2012-12-19 12:00:00
3:00 PM,75.2,64.4,69,29.86,6.2,SSW,10.4,-,N/A,,Mostly Cloudy,210,2012-12-19 13:00:00
4:00 PM,73.4,66.2,78,29.89,6.2,SSW,11.5,-,N/A,,Mostly Cloudy,210,2012-12-19 14:00:00
5:00 PM,71,67,84,29.89,12,SW,6.9,,,,Mostly Cloudy,220,2012-12-19 15:00:00
5:00 PM,71.6,66.2,83,29.89,6.2,SW,6.9,-,N/A,,Mostly Cloudy,220,2012-12-19 15:00:00
6:00 PM,69.8,66.2,88,29.89,4.3,South,9.2,-,N/A,Rain,Light Rain,190,2012-12-19 16:00:00
7:00 PM,69.8,66.2,88,29.92,6.2,SSW,10.4,-,N/A,Rain,Light Rain,200,2012-12-19 17:00:00
8:00 PM,69,65,84,29.96,12,South,8.1,,,Rain,Light Rain,190,2012-12-19 18:00:00
8:00 PM,69.8,66.2,88,29.95,6.2,South,9.2,-,N/A,,Mostly Cloudy,190,2012-12-19 18:00:00
9:00 PM,68.0,64.4,88,29.95,6.2,South,3.5,-,N/A,,Scattered Clouds,180,2012-12-19 19:00:00
10:00 PM,66.2,64.4,94,29.98,6.2,North,3.5,-,N/A,,Mostly Cloudy,10,2012-12-19 20:00:00
11:00 PM,68.0,66.2,94,30.01,6.2,SW,2.3,-,N/A,,Mostly Cloudy,230,2012-12-19 21:00:00